Terminal Aerodrome Forecast
Issued by NWS Charleston, WV

Current Version | Previous Version | Graphics & Text | Print | Product List | Glossary On
Versions: 1 2 3 4 5 6 7 8 9 10 11 12 13 14 15 16 17 18 19 20 21 22 23 24 25
000
FTUS41 KRLX 280500
TAFCRW
TAF
KCRW 280538Z 2806/2906 23009KT P6SM FEW019 OVC090
     FM280800 27008KT 6SM BR BKN020
     FM281400 27010G15KT P6SM BKN025
     FM281600 29011G16KT P6SM BKN040
     FM282300 31007KT P6SM BKN035
     FM290300 VRB03KT 5SM BR BKN040=

USA.gov is the U.S. government's official web portal to all federal, state and local government web resources and services.